OK2ARM-12 Weather Reports


time (UTC)temp
C
wind
direction
speed
KPH
gust
KPH
rain 1hr
cm
rain 24hr
cm
rain mn
cm
humidity
%
barometer
mb
20260507204622 11 0.0 0.0 0.00 0.00 0.00 73 1015.4
20260507203622 11 0.0 0.0 0.00 0.00 0.00 72 1015.2
20260507202622 11 0.0 0.0 0.00 0.00 0.00 71 1015.1
20260507200358 11 0.0 0.0 0.00 0.00 0.00 68 1014.8
20260507195359 11 0.0 0.0 0.00 0.00 0.00 65 1014.6
20260507193133 12 0.0 0.0 0.00 0.00 0.00 60 1014.3
20260507192133 12 0.0 0.0 0.00 0.00 0.00 57 1014.2
20260507191133 12 0.0 0.0 0.00 0.00 0.00 56 1014.1
20260507184909 13 0.0 0.0 0.00 0.00 0.00 54 1013.8
20260507182646 13 0.0 0.0 0.00 0.00 0.00 52 1013.4
20260507181647 13 0.0 0.0 0.00 0.00 0.00 51 1013.1
20260507180645 13 0.0 0.0 0.00 0.00 0.00 51 1013.0
20260507171935 15 0.0 0.0 0.00 0.00 0.00 48 1012.7
20260507170935 14 0.0 0.0 0.00 0.00 0.00 49 1012.7
20260507164711 15 0.0 0.0 0.00 0.00 0.00 49 1012.5
20260507163711 15 0.0 0.0 0.00 0.00 0.00 49 1012.4
20260507162711 15 0.0 0.0 0.00 0.00 0.00 49 1012.4
20260507161712 15 0.0 0.0 0.00 0.00 0.00 51 1012.4
20260507160711 15 0.0 0.0 0.00 0.00 0.00 50 1012.2
20260507155711 15 0.0 0.0 0.00 0.00 0.00 50 1012.3
20260507154711 16 0.0 0.0 0.00 0.00 0.00 48 1012.3
20260507153711 16 0.0 0.0 0.00 0.00 0.00 48 1012.4
20260507152711 15 0.0 0.0 0.00 0.00 0.00 48 1012.3
20260507151711 16 0.0 0.0 0.00 0.00 0.00 44 1012.3
20260507150711 17 0.0 0.0 0.00 0.00 0.00 43 1012.2
20260507145711 16 0.0 0.0 0.00 0.00 0.00 43 1012.2
20260507144711 17 0.0 0.0 0.00 0.00 0.00 44 1012.1
20260507141223 16 0.0 0.0 0.00 0.00 0.00 44 1012.2
20260507140223 16 0.0 0.0 0.00 0.00 0.00 44 1012.2
20260507135222 16 0.0 0.0 0.00 0.00 0.00 45 1012.2
20260507134223 16 0.0 0.0 0.00 0.00 0.00 47 1012.1
20260507133223 16 0.0 0.0 0.00 0.00 0.00 43 1012.1
20260507132222 16 0.0 0.0 0.00 0.00 0.00 44 1012.1
20260507131222 16 0.0 0.0 0.00 0.00 0.00 44 1012.2
20260507130222 16 0.0 0.0 0.00 0.00 0.00 41 1012.2
20260507125222 16 0.0 0.0 0.00 0.00 0.00 43 1012.3
20260507124223 16 0.0 0.0 0.00 0.00 0.00 43 1012.1
20260507123223 16 0.0 0.0 0.00 0.00 0.00 45 1012.2
20260507122222 16 0.0 0.0 0.00 0.00 0.00 42 1012.2
20260507121223 16 0.0 0.0 0.00 0.00 0.00 44 1012.2
20260507120222 16 0.0 0.0 0.00 0.00 0.00 45 1012.3
20260507115222 16 0.0 0.0 0.00 0.00 0.00 46 1012.4
20260507114222 16 0.0 0.0 0.00 0.00 0.00 47 1012.3
20260507113222 16 0.0 0.0 0.00 0.00 0.00 48 1012.4
20260507112223 15 0.0 0.0 0.00 0.00 0.00 51 1012.4
20260507111222 16 0.0 0.0 0.00 0.00 0.00 50 1012.3
20260507110223 16 0.0 0.0 0.00 0.00 0.00 50 1012.3
20260507105222 15 0.0 0.0 0.00 0.00 0.00 52 1012.4
20260507104223 15 0.0 0.0 0.00 0.00 0.00 51 1012.4
20260507101958 15 0.0 0.0 0.00 0.00 0.00 51 1012.4
20260507100959 15 0.0 0.0 0.00 0.00 0.00 53 1012.4
20260507095958 15 0.0 0.0 0.00 0.00 0.00 54 1012.4
20260507094959 15 0.0 0.0 0.00 0.00 0.00 56 1012.3
20260507093959 13 0.0 0.0 0.00 0.00 0.00 57 1012.3
20260507092958 13 0.0 0.0 0.00 0.00 0.00 58 1012.3
20260507091959 13 0.0 0.0 0.00 0.00 0.00 61 1012.2
20260507090959 13 0.0 0.0 0.00 0.00 0.00 63 1012.2
20260507085959 13 0.0 0.0 0.00 0.00 0.00 63 1012.0
20260507084958 13 0.0 0.0 0.00 0.00 0.00 65 1011.9
20260507083958 13 0.0 0.0 0.00 0.00 0.00 65 1012.0
20260507080512 12 0.0 0.0 0.00 0.00 0.00 66 1011.6
20260507075511 13 0.0 0.0 0.00 0.00 0.00 68 1011.7
20260507074511 12 0.0 0.0 0.00 0.00 0.00 70 1011.7
20260507073511 12 0.0 0.0 0.00 0.00 0.00 72 1011.7
20260507072511 11 0.0 0.0 0.00 0.00 0.00 72 1011.6
20260507071511 11 0.0 0.0 0.00 0.00 0.00 74 1011.5
20260507070512 11 0.0 0.0 0.00 0.00 0.00 75 1011.5
20260507065511 11 0.0 0.0 0.00 0.00 0.00 75 1011.5
20260507064511 11 0.0 0.0 0.00 0.00 0.00 75 1011.3
20260507062247 11 0.0 0.0 0.00 0.00 0.00 76 1011.2
20260507061247 11 0.0 0.0 0.00 0.00 0.00 76 1010.9
20260507060247 11 0.0 0.0 0.00 0.00 0.00 77 1010.8
20260507055248 11 0.0 0.0 0.00 0.00 0.00 78 1010.7
20260507054247 11 0.0 0.0 0.00 0.00 0.00 80 1010.7
20260507052024 11 0.0 0.0 0.00 0.00 0.00 85 1010.6
20260507051025 11 0.0 0.0 0.00 0.00 0.00 86 1010.5
20260507044800 10 0.0 0.0 0.00 0.00 0.00 87 1010.1
20260507043800 10 0.0 0.0 0.00 0.00 0.00 88 1010.0
20260507042800 10 0.0 0.0 0.00 0.00 0.00 89 1009.8
20260507041800 10 0.0 0.0 0.00 0.00 0.00 91 1009.8
20260507040800 10 0.0 0.0 0.00 0.00 0.00 91 1009.8
20260507035801 10 0.0 0.0 0.00 0.00 0.00 89 1009.7
20260507033537 10 0.0 0.0 0.00 0.00 0.00 89 1009.4
20260507032536 10 0.0 0.0 0.00 0.00 0.00 90 1009.4
20260507031536 10 0.0 0.0 0.00 0.00 0.00 91 1009.2
20260507030536 10 0.0 0.0 0.00 0.00 0.00 91 1009.2
20260507023050 10 0.0 0.0 0.00 0.00 0.00 87 1008.9
20260507022049 10 0.0 0.0 0.00 0.00 0.00 85 1008.9
20260507021050 10 0.0 0.0 0.00 0.00 0.00 82 1009.0
20260507020049 10 0.0 0.0 0.00 0.00 0.00 82 1008.8
20260507013825 10 0.0 0.0 0.00 0.00 0.00 83 1008.4
20260507012825 10 0.0 0.0 0.00 0.00 0.00 84 1008.2
20260507011825 10 0.0 0.0 0.00 0.00 0.00 84 1008.2
20260507010825 10 0.0 0.0 0.00 0.00 0.00 85 1008.2
20260507005825 10 0.0 0.0 0.00 0.00 0.00 87 1008.1
20260507004825 10 0.0 0.0 0.00 0.00 0.00 87 1008.1
20260507003825 10 0.0 0.0 0.00 0.00 0.00 86 1007.9
20260507002825 10 0.0 0.0 0.00 0.00 0.00 86 1007.6
20260507001825 10 0.0 0.0 0.00 0.00 0.00 85 1007.8
20260507000825 11 0.0 0.0 0.00 0.00 0.00 85 1007.8
20260506235825 11 0.0 0.0 0.00 0.00 0.00 85 1007.8
20260506232338 11 0.0 0.0 0.00 0.00 0.00 84 1007.4
20260506231338 11 0.0 0.0 0.00 0.00 0.00 84 1007.1
20260506230338 11 0.0 0.0 0.00 0.00 0.00 83 1006.7
20260506225338 11 0.0 0.0 0.00 0.00 0.00 84 1006.7
20260506224338 11 0.0 0.0 0.00 0.00 0.00 83 1006.4
20260506220849 13 0.0 0.0 0.00 0.00 0.00 74 1005.9
20260506215849 14 0.0 0.0 0.00 0.00 0.00 68 1005.8
20260506213624 14 0.0 0.0 0.00 0.00 0.00 67 1005.6
20260506212624 15 0.0 0.0 0.00 0.00 0.00 67 1005.4
20260506211624 14 0.0 0.0 0.00 0.00 0.00 67 1005.2
20260506210624 15 0.0 0.0 0.00 0.00 0.00 66 1005.1
20260506205624 15 0.0 0.0 0.00 0.00 0.00 65 1004.7